KC9DRE Weather Reports


time (UTC)temp
F
wind
direction
speed
knots
gust
knots
rain 1hr
in
rain 24hr
in
rain mn
in
humidity
%
barometer
mb
20260905191035 98 265 0.9 1.7 0.00 0.00 0.00 48 1013.4
20260905190534 99 247 0.9 1.7 0.00 0.00 0.00 46 1013.6
20260905190033 98 264 0.0 1.7 0.00 0.00 0.00 50 1013.5
20260905185533 96 262 0.9 3.5 0.00 0.00 0.00 49 1013.7
20260905185027 97 355 1.7 3.5 0.00 0.00 0.00 48 1013.7
20260905184526 98 281 0.9 2.6 0.00 0.00 0.00 46 1013.7
20260905184025 99 271 0.9 0.9 0.00 0.00 0.00 48 1013.7
20260905183526 98 260 0.9 0.9 0.00 0.00 0.00 46 1013.8
20260905183021 97 268 0.9 1.7 0.00 0.00 0.00 46 1013.7
20260905182521 97 264 0.0 1.7 0.00 0.00 0.00 47 1013.9
20260905182021 98 242 0.9 0.9 0.00 0.00 0.00 45 1014.1
20260905181516 97 259 1.7 2.6 0.00 0.00 0.00 47 1014.1
20260905181015 97 263 0.0 0.9 0.00 0.00 0.00 47 1014.1
20260905180510 96 262 0.9 1.7 0.00 0.00 0.00 51 1014.0
20260905180005 96 265 0.0 1.7 0.00 0.00 0.00 50 1014.2
20260905175504 96 275 1.7 1.7 0.00 0.00 0.00 48 1014.1
20260905175000 96 283 0.9 2.6 0.00 0.00 0.00 48 1014.3
20260905174455 96 282 1.7 1.7 0.00 0.00 0.00 48 1014.5
20260905173951 96 288 1.7 1.7 0.00 0.00 0.00 47 1014.5
20260905173447 95 236 0.0 1.7 0.00 0.00 0.00 50 1014.4
20260905172942 95 262 1.7 2.6 0.00 0.00 0.00 51 1014.5
20260905172440 93 257 0.0 1.7 0.00 0.00 0.00 52 1014.4
20260905171936 94 100 0.9 3.5 0.00 0.00 0.00 49 1014.4
20260905171433 95 343 0.0 1.7 0.00 0.00 0.00 53 1014.5
20260905170929 94 279 0.9 1.7 0.00 0.00 0.00 49 1014.3
20260905170424 93 210 0.9 1.7 0.00 0.00 0.00 52 1014.6
20260905165924 94 118 1.7 1.7 0.00 0.00 0.00 48 1014.7
20260905165419 93 282 1.7 2.6 0.00 0.00 0.00 48 1014.9
20260905164914 93 293 0.9 1.7 0.00 0.00 0.00 48 1014.9
20260905164408 93 265 0.9 1.7 0.00 0.00 0.00 47 1015.0
20260905163903 94 320 0.9 1.7 0.00 0.00 0.00 47 1014.8
20260905163400 93 271 0.0 1.7 0.00 0.00 0.00 50 1014.9
20260905162856 91 256 1.7 3.5 0.00 0.00 0.00 52 1015.1
20260905162355 91 43 1.7 1.7 0.00 0.00 0.00 52 1015.2
20260905161850 91 358 0.0 1.7 0.00 0.00 0.00 50 1015.3
20260905161350 91 235 0.9 1.7 0.00 0.00 0.00 52 1015.3
20260905160848 92 10 0.9 3.5 0.00 0.00 0.00 48 1015.3
20260905160343 91 122 0.0 2.6 0.00 0.00 0.00 49 1015.2
20260905155837 91 287 2.6 3.5 0.00 0.00 0.00 51 1015.3
20260905155337 90 273 1.7 2.6 0.00 0.00 0.00 51 1015.2
20260905154836 89 185 2.6 2.6 0.00 0.00 0.00 51 1015.2
20260905154332 88 306 1.7 1.7 0.00 0.00 0.00 55 1015.2
20260905153827 89 17 0.9 1.7 0.00 0.00 0.00 54 1015.3
20260905153324 88 307 1.7 2.6 0.00 0.00 0.00 54 1015.4
20260905152823 89 350 0.9 1.7 0.00 0.00 0.00 54 1015.4
20260905152322 88 268 1.7 1.7 0.00 0.00 0.00 56 1015.5
20260905151818 88 52 0.9 1.7 0.00 0.00 0.00 56 1015.5
20260905151313 87 351 0.0 0.9 0.00 0.00 0.00 57 1015.7
20260905150813 86 272 0.0 1.7 0.00 0.00 0.00 57 1015.7
20260905150313 86 143 1.7 5.2 0.00 0.00 0.00 57 1015.7
20260905145811 87 5 1.7 5.2 0.00 0.00 0.00 57 1015.7
20260905145310 86 244 0.9 3.5 0.00 0.00 0.00 61 1015.5
20260905144809 86 270 0.0 2.6 0.00 0.00 0.00 61 1015.6
20260905144305 85 10 0.9 1.7 0.00 0.00 0.00 62 1015.7
20260905143804 84 79 2.6 6.1 0.00 0.00 0.00 61 1015.7
20260905143258 84 49 4.3 6.1 0.00 0.00 0.00 61 1015.8
20260905142757 84 171 2.6 6.1 0.00 0.00 0.00 64 1015.9
20260905142251 83 289 1.7 6.1 0.00 0.00 0.00 66 1015.8
20260905141748 83 114 5.2 7.0 0.00 0.00 0.00 66 1015.6
20260905141244 82 266 1.7 3.5 0.00 0.00 0.00 69 1015.9
20260905140739 82 96 0.9 6.1 0.00 0.00 0.00 70 1016.1
20260905140239 82 57 2.6 3.5 0.00 0.00 0.00 70 1016.1
20260905135737 81 165 2.6 5.2 0.00 0.00 0.00 71 1016.2
20260905135234 81 127 1.7 7.0 0.00 0.00 0.00 72 1015.9
20260905134733 81 196 1.7 2.6 0.00 0.00 0.00 71 1016.1
20260905134233 80 57 2.6 6.1 0.00 0.00 0.00 73 1016.2
20260905133728 80 100 1.7 8.7 0.00 0.00 0.00 74 1015.9
20260905133223 80 157 0.9 5.2 0.00 0.00 0.00 74 1016.2
20260905132722 80 103 0.9 6.1 0.00 0.00 0.00 75 1016.3
20260905132218 79 48 1.7 7.8 0.00 0.00 0.00 76 1016.7
20260905131712 79 65 1.7 8.7 0.00 0.00 0.00 78 1016.5
20260905131208 79 81 3.5 7.0 0.00 0.00 0.00 79 1016.5
20260905130702 78 61 2.6 6.1 0.00 0.00 0.00 82 1016.5
20260905130201 78 357 1.7 7.8 0.00 0.00 0.00 82 1016.5
20260905125655 78 128 2.6 7.0 0.00 0.00 0.00 84 1016.8
20260905125151 77 245 0.9 6.1 0.00 0.00 0.00 86 1016.4
20260905124648 77 322 0.9 3.5 0.00 0.00 0.00 92 1016.8
20260905124144 78 311 0.0 0.9 0.00 0.00 0.00 91 1015.7
20260905123638 78 264 0.0 0.0 0.00 0.00 0.00 90 1015.6
20260905123136 78 264 0.0 0.0 0.00 0.00 0.00 92 1015.6
20260905122635 77 261 0.0 0.0 0.00 0.00 0.00 94 1015.6
20260905122130 77 270 0.0 0.0 0.00 0.00 0.00 97 1015.4
20260905121625 75 260 0.0 0.0 0.00 0.00 0.00 98 1015.4
20260905121120 74 278 0.0 0.0 0.00 0.00 0.00 98 1015.0
20260905120619 73 316 0.0 0.9 0.00 0.00 0.00 98 1015.3
20260905120114 73 258 0.0 0.0 0.00 0.00 0.00 98 1015.2
20260905115613 72 267 0.0 0.9 0.00 0.00 0.00 98 1015.2
20260905115108 72 343 0.9 1.7 0.00 0.00 0.00 98 1015.2
20260905114608 71 264 0.0 0.0 0.00 0.00 0.00 98 1015.1
20260905114107 71 264 0.0 0.0 0.00 0.00 0.00 98 1015.0
20260905113602 71 264 0.0 0.0 0.00 0.00 0.00 98 1014.9
20260905113057 71 264 0.0 0.0 0.00 0.00 0.00 98 1014.9
20260905112552 71 264 0.0 0.0 0.00 0.00 0.00 98 1014.9
20260905112048 71 264 0.0 0.0 0.00 0.00 0.00 98 1014.7
20260905111543 71 264 0.0 0.0 0.00 0.00 0.00 98 1014.6
20260905111042 71 264 0.0 0.0 0.00 0.00 0.00 97 1014.4
20260905110541 71 264 0.0 0.0 0.00 0.00 0.00 97 1014.6
20260905110036 71 264 0.0 0.0 0.00 0.00 0.00 97 1014.4
20260905105536 71 264 0.0 0.0 0.00 0.00 0.00 97 1014.3
20260905105036 71 264 0.0 0.0 0.00 0.00 0.00 97 1014.3
20260905104532 71 264 0.0 0.0 0.00 0.00 0.00 97 1014.0
20260905104031 71 264 0.0 0.0 0.00 0.00 0.00 97 1014.0
20260905103527 71 264 0.0 0.0 0.00 0.00 0.00 97 1014.1
20260905103023 71 264 0.0 0.0 0.00 0.00 0.00 97 1014.2
20260905102518 71 264 0.0 0.0 0.00 0.00 0.00 97 1014.3
20260905102015 71 264 0.0 0.0 0.00 0.00 0.00 97 1014.1
20260905101513 72 264 0.0 0.0 0.00 0.00 0.00 97 1014.2
20260905101011 72 263 0.0 0.0 0.00 0.00 0.00 97 1014.2
20260905100508 72 264 0.0 0.0 0.00 0.00 0.00 96 1014.3
20260905100007 72 263 0.0 0.0 0.00 0.00 0.00 96 1014.2
20260905095502 72 263 0.0 0.0 0.00 0.00 0.00 96 1014.3
20260905094957 72 264 0.0 0.0 0.00 0.00 0.00 96 1014.1
20260905094452 72 263 0.0 0.0 0.00 0.00 0.00 96 1014.2
20260905093951 72 263 0.0 0.0 0.00 0.00 0.00 96 1014.2
20260905093446 73 263 0.0 0.0 0.00 0.00 0.00 96 1014.1
20260905092942 73 264 0.0 0.0 0.00 0.00 0.00 95 1014.0
20260905092437 73 263 0.0 0.0 0.00 0.00 0.00 95 1013.9
20260905091933 73 263 0.0 0.0 0.00 0.00 0.00 95 1013.9
20260905091433 73 267 0.0 0.0 0.00 0.00 0.00 94 1013.9
20260905090932 73 267 0.0 0.0 0.00 0.00 0.00 94 1013.7
20260905090428 73 267 0.0 0.0 0.00 0.00 0.00 94 1013.7
20260905085927 74 267 0.0 0.0 0.00 0.00 0.00 94 1013.7
20260905085426 74 267 0.0 0.0 0.00 0.00 0.00 94 1013.5
20260905084922 74 267 0.0 0.0 0.00 0.00 0.00 94 1013.5
20260905084421 75 263 0.0 0.0 0.00 0.00 0.00 93 1013.6
20260905083916 75 263 0.0 0.0 0.00 0.00 0.00 93 1013.7
20260905083412 75 263 0.0 0.0 0.00 0.00 0.00 92 1013.9
20260905082908 76 263 0.0 0.0 0.00 0.00 0.00 92 1013.7
20260905082404 76 270 0.0 0.0 0.00 0.00 0.00 91 1013.8
20260905081859 77 271 0.0 0.0 0.00 0.00 0.00 89 1013.9
20260905081359 77 256 0.0 0.0 0.00 0.00 0.00 88 1013.8
20260905080857 77 273 0.0 0.0 0.00 0.00 0.00 87 1014.0
20260905080352 76 276 0.0 0.9 0.00 0.00 0.00 90 1013.8
20260905075852 75 273 0.0 3.5 0.00 0.00 0.00 94 1014.1
20260905075351 75 240 0.9 1.7 0.00 0.00 0.00 97 1014.0
20260905074850 75 271 0.0 0.0 0.00 0.00 0.00 98 1014.2
20260905074346 74 260 0.0 0.9 0.00 0.00 0.00 98 1014.2
20260905073841 74 263 0.0 0.9 0.00 0.00 0.00 98 1014.1
20260905073337 74 270 0.0 0.0 0.00 0.00 0.00 98 1014.1
20260905072831 73 259 0.9 1.7 0.00 0.00 0.00 98 1014.2
20260905072326 73 266 0.0 0.0 0.00 0.00 0.00 98 1013.7
20260905071824 73 266 0.0 0.0 0.00 0.00 0.00 98 1014.0
20260905071320 73 266 0.0 0.0 0.00 0.00 0.00 98 1013.8
20260905070819 73 266 0.0 0.0 0.00 0.00 0.00 98 1014.1
20260905070316 73 266 0.0 0.0 0.00 0.00 0.00 98 1014.0
20260905065815 73 266 0.0 0.0 0.00 0.00 0.00 98 1014.1
20260905065313 73 266 0.0 0.0 0.00 0.00 0.00 98 1014.1
20260905064809 73 266 0.0 0.0 0.00 0.00 0.00 98 1014.0
20260905064304 73 266 0.0 0.0 0.00 0.00 0.00 98 1014.2
20260905063803 73 266 0.0 0.0 0.00 0.00 0.00 98 1014.0
20260905063259 73 266 0.0 0.0 0.00 0.00 0.00 98 1014.3
20260905062755 73 266 0.0 0.0 0.00 0.00 0.00 98 1014.3
20260905062255 73 266 0.0 0.0 0.00 0.00 0.00 98 1014.5
20260905061750 72 266 0.0 0.0 0.00 0.00 0.00 98 1014.4
20260905061250 72 266 0.0 0.0 0.00 0.00 0.00 98 1014.6
20260905060744 72 266 0.0 0.0 0.00 0.00 0.00 98 1014.6
20260905060241 72 266 0.0 0.0 0.00 0.00 0.00 98 1014.6
20260905055739 72 266 0.0 0.0 0.00 0.00 0.00 97 1014.6
20260905055235 72 266 0.0 0.0 0.00 0.00 0.00 97 1014.6
20260905054730 72 266 0.0 0.0 0.00 0.00 0.00 97 1014.7
20260905054226 72 266 0.0 0.0 0.00 0.00 0.00 97 1014.7
20260905053725 72 266 0.0 0.0 0.00 0.00 0.00 97 1014.9
20260905053221 72 266 0.0 0.0 0.00 0.00 0.00 97 1014.7
20260905052720 72 266 0.0 0.0 0.00 0.00 0.00 97 1014.6
20260905052215 72 266 0.0 0.0 0.00 0.00 0.00 97 1014.9
20260905051715 72 266 0.0 0.0 0.00 0.00 0.00 97 1014.8
20260905051212 73 266 0.0 0.0 0.00 0.00 0.00 97 1014.8
20260905050708 73 266 0.0 0.0 0.00 0.00 0.00 97 1014.7
20260905050205 73 266 0.0 0.0 0.00 0.00 0.00 97 1014.9
20260905045704 73 266 0.0 0.0 0.00 0.00 0.00 97 1014.7
20260905045159 73 266 0.0 0.0 0.00 0.00 0.00 97 1014.7
20260905044655 73 266 0.0 0.0 0.00 0.00 0.00 97 1014.7
20260905044149 73 266 0.0 0.0 0.00 0.00 0.00 97 1014.7
20260905043648 73 266 0.0 0.0 0.00 0.00 0.00 97 1015.1
20260905043143 73 266 0.0 0.0 0.00 0.00 0.00 97 1014.8
20260905042643 73 266 0.0 0.0 0.00 0.00 0.00 97 1014.9
20260905042137 73 265 0.0 0.0 0.00 0.00 0.00 97 1014.8
20260905041633 73 265 0.0 0.0 0.00 0.00 0.00 96 1014.9
20260905041128 73 265 0.0 0.0 0.00 0.00 0.00 97 1014.8
20260905040629 73 265 0.0 0.0 0.00 0.00 0.00 97 1014.9
20260905040127 73 265 0.0 0.0 0.00 0.00 0.00 96 1014.9
20260905035622 73 265 0.0 0.0 0.00 0.00 0.00 96 1015.1
20260905035119 74 265 0.0 0.0 0.00 0.00 0.00 96 1015.0
20260905034615 74 265 0.0 0.0 0.00 0.00 0.00 96 1015.1
20260905034114 74 265 0.0 0.0 0.00 0.00 0.00 96 1014.8
20260905033614 74 265 0.0 0.0 0.00 0.00 0.00 96 1015.0
20260905033110 74 265 0.0 0.0 0.00 0.00 0.00 96 1014.8
20260905032609 74 265 0.0 0.0 0.00 0.00 0.00 96 1015.0
20260905032109 74 265 0.0 0.0 0.00 0.00 0.00 96 1015.1
20260905031605 74 265 0.0 0.0 0.00 0.00 0.00 96 1014.9
20260905031105 74 265 0.0 0.0 0.00 0.00 0.00 96 1015.1
20260905030600 74 265 0.0 0.0 0.00 0.00 0.00 96 1015.2
20260905030055 74 265 0.0 0.0 0.00 0.00 0.00 96 1015.0
20260905025550 74 265 0.0 0.0 0.00 0.00 0.00 96 1015.3
20260905025047 74 265 0.0 0.0 0.00 0.00 0.00 95 1015.3
20260905024542 75 265 0.0 0.0 0.00 0.00 0.00 95 1015.3
20260905024037 75 265 0.0 0.0 0.00 0.00 0.00 95 1015.2
20260905023532 75 265 0.0 0.0 0.00 0.00 0.00 95 1015.1
20260905023027 75 265 0.0 0.0 0.00 0.00 0.00 95 1015.1
20260905022526 75 265 0.0 0.0 0.00 0.00 0.00 95 1014.9
20260905022021 75 265 0.0 0.0 0.00 0.00 0.00 95 1015.0
20260905021521 75 265 0.0 0.0 0.00 0.00 0.00 94 1015.2
20260905021016 75 265 0.0 0.0 0.00 0.00 0.00 94 1015.0
20260905020516 75 265 0.0 0.0 0.00 0.00 0.00 94 1015.1
20260905020012 75 265 0.0 0.0 0.00 0.00 0.00 94 1014.9
20260905015509 75 265 0.0 0.0 0.00 0.00 0.00 94 1014.8
20260905015009 76 265 0.0 0.0 0.00 0.00 0.00 93 1014.9
20260905014504 76 265 0.0 0.0 0.00 0.00 0.00 93 1014.9
20260905013959 76 265 0.0 0.0 0.00 0.00 0.00 93 1014.8
20260905013456 76 265 0.0 0.0 0.00 0.00 0.00 93 1014.9
20260905012951 76 265 0.0 0.0 0.00 0.00 0.00 93 1014.7
20260905012446 77 265 0.0 0.0 0.00 0.00 0.00 93 1014.7
20260905011942 77 265 0.0 0.0 0.00 0.00 0.00 92 1014.6
20260905011438 77 265 0.0 0.0 0.00 0.00 0.00 92 1014.5
20260905010933 77 265 0.0 0.0 0.00 0.00 0.00 91 1014.6
20260905010428 77 265 0.0 0.0 0.00 0.00 0.00 91 1014.4
20260905005924 78 265 0.0 0.0 0.00 0.00 0.00 91 1014.7
20260905005420 78 265 0.0 0.0 0.00 0.00 0.00 90 1014.4
20260905004915 78 265 0.0 0.0 0.00 0.00 0.00 89 1014.7
20260905004415 78 265 0.0 0.0 0.00 0.00 0.00 88 1014.3
20260905003910 79 265 0.0 0.0 0.00 0.00 0.00 87 1014.4
20260905003406 79 265 0.0 0.0 0.00 0.00 0.00 87 1014.4
20260905002902 80 265 0.0 0.0 0.00 0.00 0.00 85 1014.4
20260905002401 80 265 0.0 0.0 0.00 0.00 0.00 84 1014.1
20260905001856 81 265 0.0 0.0 0.00 0.00 0.00 83 1014.2
20260905001350 82 265 0.0 0.0 0.00 0.00 0.00 82 1014.2
20260905000845 82 265 0.0 0.0 0.00 0.00 0.00 81 1014.2
20260905000341 83 265 0.0 0.0 0.00 0.00 0.00 79 1014.3
20260904235836 83 265 0.0 0.0 0.00 0.00 0.00 79 1014.1
20260904235331 84 265 0.0 0.0 0.00 0.00 0.00 77 1014.2
20260904234826 85 265 0.0 0.0 0.00 0.00 0.00 76 1014.2
20260904234320 85 265 0.0 0.0 0.00 0.00 0.00 75 1014.3
20260904233816 86 265 0.0 0.0 0.00 0.00 0.00 74 1014.3
20260904233312 86 265 0.0 0.0 0.00 0.00 0.00 72 1014.4
20260904232808 87 266 0.0 0.0 0.00 0.00 0.00 72 1014.3
20260904232306 87 265 0.0 0.0 0.00 0.00 0.00 70 1014.4
20260904231800 88 265 0.0 0.0 0.00 0.00 0.00 70 1014.0
20260904231255 88 265 0.0 0.0 0.00 0.00 0.00 70 1014.3
20260904230751 89 266 0.0 0.0 0.00 0.00 0.00 69 1014.3
20260904230250 89 266 0.0 0.0 0.00 0.00 0.00 67 1014.5
20260904225750 91 269 0.0 0.9 0.00 0.00 0.00 65 1014.2
20260904225243 92 266 0.0 0.0 0.00 0.00 0.00 63 1014.5
20260904224742 95 268 0.0 0.0 0.00 0.00 0.00 60 1014.4
20260904224238 96 267 0.0 0.0 0.00 0.00 0.00 59 1014.5
20260904223737 96 263 0.0 0.9 0.00 0.00 0.00 57 1014.4
20260904223232 97 271 0.0 0.0 0.00 0.00 0.00 56 1014.4
20260904222728 97 265 0.0 0.0 0.00 0.00 0.00 56 1014.6
20260904222224 98 264 0.0 0.0 0.00 0.00 0.00 55 1014.6
20260904221723 98 305 0.9 1.7 0.00 0.00 0.00 47 1014.6
20260904221219 99 249 0.0 0.9 0.00 0.00 0.00 51 1014.7
20260904220718 100 259 0.9 0.9 0.00 0.00 0.00 50 1014.5
20260904220214 100 268 0.0 0.0 0.00 0.00 0.00 49 1014.6
20260904215713 100 253 0.0 0.9 0.00 0.00 0.00 50 1014.6
20260904215209 100 271 0.0 1.7 0.00 0.00 0.00 47 1014.5
20260904214704 99 275 0.9 1.7 0.00 0.00 0.00 47 1014.8
20260904214200 99 303 0.0 0.9 0.00 0.00 0.00 48 1014.6
20260904213657 99 285 0.9 0.9 0.00 0.00 0.00 47 1014.6
20260904213154 99 265 0.0 1.7 0.00 0.00 0.00 48 1014.9
20260904212649 100 252 0.0 0.9 0.00 0.00 0.00 47 1014.7
20260904212144 101 273 1.7 2.6 0.00 0.00 0.00 48 1014.8
20260904211643 100 267 0.0 0.9 0.00 0.00 0.00 45 1014.6
20260904211139 100 266 0.0 0.9 0.00 0.00 0.00 48 1014.7
20260904210639 100 241 0.9 1.7 0.00 0.00 0.00 47 1014.9
20260904210134 100 309 0.9 2.6 0.00 0.00 0.00 45 1014.8
20260904205630 100 275 0.0 0.9 0.00 0.00 0.00 48 1014.8
20260904205126 100 264 0.0 1.7 0.00 0.00 0.00 48 1015.0
20260904204622 100 259 0.0 2.6 0.00 0.00 0.00 46 1014.7
20260904204119 100 262 0.9 0.9 0.00 0.00 0.00 44 1014.8
20260904203614 100 273 0.9 2.6 0.00 0.00 0.00 46 1015.1
20260904203110 100 257 0.9 1.7 0.00 0.00 0.00 45 1015.1
20260904202606 99 329 1.7 2.6 0.00 0.00 0.00 47 1015.1
20260904202102 99 348 1.7 1.7 0.00 0.00 0.00 48 1015.2
20260904201602 98 257 0.0 1.7 0.00 0.00 0.00 52 1015.1
20260904201057 97 277 0.0 2.6 0.00 0.00 0.00 52 1015.4
20260904200555 96 299 1.7 2.6 0.00 0.00 0.00 50 1015.6
20260904200051 96 276 0.0 0.9 0.00 0.00 0.00 52 1015.5
20260904195550 96 261 0.0 0.9 0.00 0.00 0.00 52 1015.5
20260904195049 97 276 0.0 0.0 0.00 0.00 0.00 51 1015.7
20260904194544 98 275 0.0 1.7 0.00 0.00 0.00 51 1015.7
20260904194039 98 343 0.9 2.6 0.00 0.00 0.00 50 1015.5
20260904193533 98 263 1.7 3.5 0.00 0.00 0.00 47 1015.9
20260904193030 98 323 0.9 1.7 0.00 0.00 0.00 49 1015.7
20260904192529 99 334 1.7 3.5 0.00 0.00 0.00 47 1015.9
20260904192026 100 273 0.0 1.7 0.00 0.00 0.00 45 1016.2
20260904191522 100 263 0.0 1.7 0.00 0.00 0.00 50 1016.1